www.pogodaiklimat.ru

Погода и климат >> Архив погоды >> Ирландия >> Malin Head


ПОГОДА в Malin Head

  • Прогноз погоды в Malin Head
  • Монитор погоды в Malin Head
  • Климат города

АРХИВ ПОГОДЫ в Malin Head

Время (UTC), дата Ветер
(напр.,м/с)
 
Видим.   Явления Облачность Т
(С)
Тd
(С)
f
(%)
Тe
(С)
Тes
(С)
Комфортность P
(гПа)
Po
(гПа)
Тmin
(С)
Tmax
(С)
R
(мм)
R24
(мм)
S
(см)
01 13.07 СЗ 1 35 км н/о +13.8 +10.5 80 +14 +14 1024.1 1021.6
02 13.07 штиль 0 50 км н/о +13.2 +10.3 83 +13 +13 1023.9 1021.4
03 13.07 С 1 50 км н/о +12.4 +9.9 85 +12 +12 1023.7 1021.2
04 13.07 Ю 2 50 км н/о +11.0 +8.9 87 +10 +10 1023.6 1021.0
05 13.07 Ю 2 45 км н/о +11.8 +9.6 86 +11 +11 1023.4 1020.9
06 13.07 Ю 2 40 км н/о +13.4 +10.8 84 +13 +13 1023.0 1020.5 +10.4
07 13.07 ЮЗ 3 40 км н/о +15.3 +10.6 74 +15 +15 1023.2 1020.7
08 13.07 ЮЗ 4 40 км н/о +15.3 +10.9 75 +14 +14 1022.9 1020.5
09 13.07 ЮЗ 3 35 км н/о +15.2 +11.9 81 +15 +15 1022.9 1020.5
10 13.07 ЮЗ 3 30 км н/о +16.4 +12.8 79 +16 +16 1022.9 1020.4
11 13.07 З 5 19 км н/о +17.1 +14.0 82 +16 +16 1022.7 1020.3
12 13.07 ЮЗ 3 29 км н/о +17.9 +13.8 77 +18 +18 1022.5 1020.0
13 13.07 З 5 35 км н/о +17.7 +13.2 75 +17 +17 1022.4 1020.0
14 13.07 З 5 29 км н/о +17.4 +13.5 78 +17 +17 1022.3 1019.8
15 13.07 З 5 30 км н/о +17.3 +13.6 79 +17 +17 1021.9 1019.5
16 13.07 ЮЗ 3 35 км н/о +17.0 +13.6 80 +17 +17 1021.6 1019.1
17 13.07 ЮЗ 3 35 км н/о +16.7 +13.7 82 +16 +16 1021.3 1018.8
18 13.07 З 2 35 км н/о +17.8 +13.0 73 +18 +18 1021.0 1018.5 +18.8
19 13.07 СВ 1 30 км н/о +15.9 +12.8 82 +17 +17 1020.6 1018.2
20 13.07 В 2 24 км н/о +14.7 +12.3 86 +14 +14 1020.5 1018.1
21 13.07 Ю 1 27 км н/о +15.1 +12.5 84 +16 +16 1020.7 1018.2
22 13.07 ЮВ 3 30 км н/о +13.1 +10.8 86 +12 +12 1020.1 1017.6
23 13.07 ЮВ 3 35 км н/о +13.1 +11.3 89 +12 +12 1019.7 1017.2
00 14.07 ЮВ 5 40 км н/о +13.6 +11.9 89 +12 +12 1019.2 1016.8
01 14.07 Ю 3 30 км н/о +13.4 +11.7 89 +12 +12 1018.9 1016.4
02 14.07 Ю 4 30 км н/о +12.9 +11.2 89 +11 +11 1018.7 1016.2
03 14.07 Ю 4 27 км н/о +13.2 +11.3 88 +11 +11 1018.2 1015.7
04 14.07 Ю 5 45 км н/о +13.6 +11.5 87 +12 +12 1017.6 1015.2
05 14.07 Ю 5 35 км н/о +13.8 +11.6 87 +12 +12 1017.4 1014.9
06 14.07 Ю 5 40 км н/о +14.5 +11.9 84 +13 +13 1017.0 1014.5 +12.2
07 14.07 Ю 5 35 км н/о +15.9 +12.4 80 +15 +15 1016.7 1014.2
08 14.07 Ю 7 30 км н/о +16.9 +12.3 74 +16 +16 1016.6 1014.1
09 14.07 Ю 7 30 км н/о +18.6 +13.5 72 +19 +19 1016.2 1013.8
10 14.07 Ю 8 35 км н/о +18.7 +13.8 73 +19 +19 1015.8 1013.3
11 14.07 Ю 7 40 км н/о +18.4 +14.0 76 +18 +18 1015.7 1013.2
12 14.07 Ю 7 35 км н/о +18.7 +14.5 77 +19 +19 1015.4 1012.9
13 14.07 Ю 8 40 км н/о +18.6 +14.4 77 +19 +19 1015.2 1012.8
14 14.07 Ю 7 45 км н/о +18.9 +14.6 76 +19 +19 1014.9 1012.5
15 14.07 Ю 9 35 км н/о +19.7 +15.1 75 +21 +21 комфорт 1014.2 1011.7
16 14.07 Ю 10 35 км н/о +19.5 +15.0 75 +20 +20 1013.8 1011.4
17 14.07 Ю 7 25 км слаб. ливневой дождь н/о +18.3 +15.8 85 +18 +18 1013.7 1011.3
18 14.07 Ю 7 30 км в посл. час морось {ливн. осадки} н/о +18.3 +16.0 86 +18 +18 1013.5 1011.1 +20.2 0.5
19 14.07 Ю 8 22 км слаб. ливневой дождь н/о +18.1 +15.8 86 +17 +17 1013.2 1010.8
20 14.07 Ю 8 35 км {ливн. осадки} н/о +18.0 +15.7 86 +17 +17 1012.9 1010.5
21 14.07 Ю 8 30 км морось {ливн. осадки} н/о +17.8 +15.5 86 +17 +17 1013.0 1010.6
22 14.07 Ю 7 35 км слаб. ливневой дождь н/о +17.4 +15.6 89 +16 +16 1012.9 1010.5
23 14.07 Ю 6 30 км в посл. час морось {ливн. осадки} н/о +17.4 +15.6 89 +17 +17 1012.7 1010.3
00 15.07 Ю 7 16 км слаб. ливневой дождь н/о +17.1 +15.6 91 +16 +16 1012.4 1010.0 1
01 15.07 Ю 7 19 км морось {дождь} н/о +17.0 +15.6 91 +16 +16 1012.1 1009.6
02 15.07 Ю 6 28 км морось {дождь} н/о +16.8 +15.6 93 +16 +16 1011.9 1009.4
03 15.07 Ю 6 7000 м дождь н/о +16.7 +15.6 93 +16 +16 1011.6 1009.2
04 15.07 Ю 6 13 км слаб. дождь н/о +16.6 +15.6 94 +15 +15 1011.2 1008.8
05 15.07 Ю 6 14 км слаб. дождь н/о +16.6 +15.6 94 +15 +15 1011.1 1008.7
06 15.07 Ю 7 26 км морось {дождь} н/о +16.8 +15.7 93 +16 +16 1011.1 1008.6 +16.5 7
07 15.07 Ю 7 20 км слаб. ливневой дождь н/о +17.0 +15.9 93 +16 +16 1011.0 1008.6
08 15.07 Ю 6 19 км морось {дождь} н/о +17.4 +16.3 93 +17 +17 1011.1 1008.7
09 15.07 Ю 7 25 км слаб. ливневой дождь н/о +17.5 +16.4 93 +17 +17 1011.2 1008.8
10 15.07 Ю 6 40 км в посл. час дождь {ливн. осадки} н/о +17.6 +16.4 93 +17 +17 1011.1 1008.7
11 15.07 Ю 6 35 км слаб. ливневой дождь н/о +17.7 +16.2 91 +17 +17 1011.1 1008.7
12 15.07 Ю 8 28 км в посл. час морось {ливн. осадки, дождь} н/о +18.0 +16.1 89 +17 +17 1010.6 1008.2 3
13 15.07 Ю 9 40 км н/о +18.0 +15.3 84 +17 +17 1010.4 1008.0
14 15.07 Ю 10 40 км н/о +18.9 +15.7 82 +19 +19 1010.2 1007.8
15 15.07 Ю 7 45 км н/о +19.5 +15.6 78 +21 +21 комфорт 1010.1 1007.7
16 15.07 Ю 7 45 км н/о +19.3 +15.4 78 +20 +20 1009.8 1007.4
17 15.07 З 5 3900 м ливневой дождь н/о +15.0 +13.8 93 +13 +13 1010.4 1008.0
18 15.07 З 4 3900 м ливневой дождь н/о +15.0 +14.1 94 +14 +14 1010.4 1007.9 +19.7 7
19 15.07 З 2 14 км н/о +14.5 +13.4 93 +14 +14 1010.5 1008.0
20 15.07 З 2 4400 м слаб. ливневой дождь н/о +13.8 +12.7 93 +13 +13 1010.7 1008.2
21 15.07 ЮЗ 3 9000 м слаб. ливневой дождь н/о +14.1 +13.3 95 +13 +13 1010.7 1008.3
22 15.07 ЮЗ 3 14 км в посл. час морось н/о +13.9 +13.1 95 +13 +13 1011.1 1008.6
23 15.07 ЮЗ 3 12 км н/о +13.9 +13.0 94 +13 +13 1011.1 1008.7
00 16.07 ЮЗ 6 21 км {ливн. осадки, морось} н/о +13.9 +12.1 89 +12 +12 1011.2 1008.7 1
01 16.07 ЮЗ 4 19 км н/о +12.8 +11.2 90 +11 +11 1011.3 1008.8
02 16.07 Ю 3 16 км н/о +12.2 +10.7 91 +11 +11 1011.2 1008.8
03 16.07 ЮЗ 6 22 км н/о +13.5 +11.7 89 +11 +11 1011.4 1008.9
04 16.07 ЮЗ 5 16 км н/о +13.4 +11.8 90 +11 +11 1011.4 1009.0
05 16.07 ЮЗ 6 35 км н/о +13.1 +11.2 88 +11 +11 1011.5 1009.0
06 16.07 Ю 5 17 км н/о +13.7 +11.5 87 +12 +12 1011.6 1009.1 +12.0 1
07 16.07 Ю 4 20 км н/о +13.6 +11.5 87 +12 +12 1011.8 1009.3
08 16.07 ЮЗ 7 3900 м дымка н/о +13.4 +11.2 87 +11 +11 1012.1 1009.6
09 16.07 ЮЗ 5 30 км н/о +14.4 +11.5 83 +13 +13 1012.0 1009.5
10 16.07 З 7 16 км морось н/о +14.6 +10.7 77 +13 +13 1012.3 1009.8
11 16.07 ЮЗ 8 35 км в посл. час дождь {ливн. осадки} н/о +15.0 +10.9 76 +13 +13 1012.5 1010.0
12 16.07 ЮЗ 4 35 км {ливн. осадки, дымка} н/о +15.6 +10.4 71 +15 +15 1012.4 1009.9 0.4
13 16.07 З 5 40 км н/о +15.5 +10.3 71 +14 +14 1012.4 1009.9
14 16.07 З 6 30 км н/о +15.9 +10.8 72 +15 +15 1012.4 1009.9
15 16.07 З 5 40 км н/о +16.0 +10.3 69 +15 +15 1012.3 1009.9
16 16.07 З 6 35 км н/о +16.4 +10.8 69 +15 +15 1012.1 1009.7
17 16.07 З 7 30 км н/о +15.7 +10.5 71 +14 +14 1012.1 1009.6
18 16.07 З 7 30 км н/о +15.5 +10.6 73 +14 +14 1012.2 1009.8 +17.5 0.4
19 16.07 З 6 35 км н/о +15.9 +11.0 73 +15 +15 1012.4 1009.9
20 16.07 З 6 30 км н/о +14.7 +10.4 75 +13 +13 1012.6 1010.1
21 16.07 З 7 30 км н/о +13.9 +10.4 79 +12 +12 1013.0 1010.5
22 16.07 ЮЗ 5 40 км н/о +13.4 +10.5 83 +11 +11 1013.1 1010.6
23 16.07 ЮЗ 7 3400 м морось н/о +12.8 +11.0 89 +10 +10 1013.1 1010.6
00 17.07 Ю 5 14 км в посл. час морось н/о +12.7 +11.3 91 +10 +10 1013.1 1010.6 0.1
01 17.07 ЮЗ 4 12 км в посл. час дождь {ливн. осадки} н/о +12.7 +11.3 91 +11 +11 1012.9 1010.4
02 17.07 ЮЗ 5 15 км слаб. ливневой дождь н/о +12.6 +11.0 90 +10 +10 1012.8 1010.3
03 17.07 З 5 13 км в посл. час морось {ливн. осадки} н/о +12.6 +10.8 89 +10 +10 1012.8 1010.4
04 17.07 ЮЗ 4 15 км н/о +12.8 +9.7 81 +11 +11 1012.6 1010.1
05 17.07 Ю 3 11 км в посл. час морось {ливн. осадки} н/о +12.5 +10.7 89 +11 +11 1012.8 1010.3
06 17.07 ЮЗ 3 9000 м слаб. ливневой дождь {морось} н/о +12.7 +10.9 89 +11 +11 1013.1 1010.6 +12.2 2
07 17.07 ЮЗ 4 13 км слаб. ливневой дождь н/о +13.4 +10.6 83 +12 +12 1013.3 1010.8
08 17.07 ЮЗ 4 17 км в посл. час дождь {ливн. осадки} н/о +13.9 +10.7 81 +12 +12 1013.4 1011.0
09 17.07 З 6 7000 м морось {ливн. осадки} н/о +13.0 +10.3 84 +11 +11 1013.7 1011.2
10 17.07 ЮЗ 3 3500 м в посл. час морось н/о +15.0 +10.0 72 +14 +14 1013.6 1011.1
11 17.07 Ю 3 21 км н/о +15.3 +10.4 73 +15 +15 1013.8 1011.3
12 17.07 З 2 25 км {ливн. осадки, морось} н/о +16.2 +9.3 64 +16 +16 1013.8 1011.3 0.4
13 17.07 З 3 23 км н/о +15.3 +9.2 67 +15 +15 1014.0 1011.6
14 17.07 З 2 30 км н/о +15.9 +8.9 63 +16 +16 1013.9 1011.5
15 17.07 З 3 30 км н/о +15.6 +8.8 64 +15 +15 1014.0 1011.5
16 17.07 ЮЗ 1 28 км н/о +15.6 +10.0 69 +16 +16 1014.0 1011.6
17 17.07 В 3 28 км н/о +14.4 +9.6 73 +14 +14 1014.1 1011.7
18 17.07 В 3 24 км н/о +14.2 +10.1 76 +13 +13 1014.1 1011.7 +16.6 0.4
19 17.07 В 2 29 км н/о +14.2 +10.2 77 +14 +14 1014.3 1011.8
20 17.07 В 2 26 км н/о +13.9 +9.8 76 +13 +13 1014.5 1012.0
21 17.07 штиль 0 21 км н/о +13.6 +9.7 77 +13 +13 1014.8 1012.3
22 17.07 Ю 1 26 км н/о +13.3 +9.7 79 +14 +14 1014.9 1012.4
23 17.07 СЗ 1 25 км н/о +13.4 +9.4 77 +14 +14 1015.1 1012.7
00 18.07 СЗ 1 11 км н/о +13.1 +10.3 83 +13 +13 1015.1 1012.6
01 18.07 В 1 13 км н/о +12.9 +10.7 86 +13 +13 1015.0 1012.6
02 18.07 В 2 18 км н/о +12.6 +10.2 85 +12 +12 1015.1 1012.6
03 18.07 Ю 2 23 км н/о +11.5 +9.1 85 +10 +10 1015.3 1012.8
04 18.07 Ю 2 27 км н/о +11.5 +9.2 86 +10 +10 1015.4 1012.9
05 18.07 Ю 2 23 км н/о +12.0 +9.9 87 +11 +11 1015.7 1013.2
06 18.07 В 1 23 км н/о +13.0 +10.7 86 +13 +13 1015.9 1013.4 +11.3
07 18.07 ЮЗ 1 28 км н/о +13.9 +10.8 82 +14 +14 1016.7 1014.2
08 18.07 В 1 24 км н/о +14.7 +11.1 79 +15 +15 1016.9 1014.4
09 18.07 В 2 21 км н/о +14.6 +11.0 79 +14 +14 1017.1 1014.7
10 18.07 СВ 3 21 км н/о +15.2 +12.0 81 +15 +15 1017.3 1014.9
11 18.07 В 3 25 км н/о +15.1 +12.2 83 +14 +14 1017.6 1015.1
12 18.07 С 1 26 км н/о +15.2 +12.0 81 +16 +16 1017.9 1015.4
13 18.07 В 2 29 км н/о +14.7 +10.6 76 +14 +14 1018.2 1015.7
14 18.07 В 2 35 км н/о +15.4 +9.5 68 +15 +15 1018.4 1016.0
15 18.07 В 2 29 км н/о +16.1 +9.9 67 +16 +16 1018.6 1016.2
16 18.07 С 1 28 км н/о +15.9 +10.3 69 +17 +17 1018.8 1016.4
17 18.07 СЗ 3 40 км н/о +16.1 +11.0 72 +16 +16 1018.9 1016.4
18 18.07 СЗ 4 45 км н/о +15.5 +11.2 76 +15 +15 1019.1 1016.6 +16.5
19 18.07 СЗ 3 50 км н/о +14.9 +11.1 78 +14 +14 1019.5 1017.0
20 18.07 С 2 50 км н/о +15.1 +11.2 78 +15 +15 1019.5 1017.1
21 18.07 штиль 0 50 км н/о +13.4 +10.4 82 +13 +13 1020.0 1017.5
22 18.07 Ю 1 50 км н/о +12.0 +9.6 85 +12 +12 1020.1 1017.6
23 18.07 ЮЗ 2 50 км н/о +11.4 +9.3 87 +10 +10 1020.2 1017.7
00 19.07 З 3 40 км н/о +11.8 +9.4 85 +10 +10 1020.1 1017.6
01 19.07 ЮЗ 3 40 км н/о +10.9 +9.1 89 +9 +9 1020.0 1017.5
02 19.07 Ю 3 40 км н/о +11.1 +9.4 89 +9 +9 1020.0 1017.5
03 19.07 ЮЗ 3 40 км н/о +9.8 +8.2 90 +7 +7 1020.0 1017.5
04 19.07 Ю 3 45 км н/о +9.8 +8.3 90 +7 +7 1019.9 1017.4
05 19.07 Ю 3 40 км н/о +9.3 +7.9 91 +7 +7 1020.0 1017.4
06 19.07 ЮЗ 3 35 км н/о +11.7 +9.9 89 +10 +10 1020.0 1017.5 +9.3
07 19.07 Ю 3 50 км н/о +12.9 +10.7 86 +11 +11 1019.9 1017.4
08 19.07 Ю 4 45 км н/о +13.9 +10.6 80 +12 +12 1019.8 1017.3
09 19.07 Ю 5 40 км н/о +14.1 +10.4 78 +12 +12 1019.8 1017.3
10 19.07 Ю 4 45 км н/о +15.7 +9.8 68 +15 +15 1019.5 1017.0
11 19.07 ЮЗ 4 40 км н/о +16.2 +10.1 67 +16 +16 1019.4 1016.9
12 19.07 З 5 20 км н/о +15.9 +10.1 68 +15 +15 1019.1 1016.7
13 19.07 З 7 40 км н/о +17.0 +10.9 67 +16 +16 1018.7 1016.3
14 19.07 З 7 30 км н/о +16.7 +9.6 63 +15 +15 1018.7 1016.2
15 19.07 З 9 35 км н/о +17.2 +9.8 62 +16 +16 1018.3 1015.8
16 19.07 З 7 35 км н/о +16.6 +10.5 67 +15 +15 1017.7 1015.2
17 19.07 З 8 35 км н/о +15.8 +10.6 71 +14 +14 1017.3 1014.8
18 19.07 ЮЗ 6 40 км н/о +15.4 +10.8 74 +14 +14 1017.1 1014.6 +17.8
19 19.07 ЮЗ 4 40 км н/о +15.4 +10.9 75 +14 +14 1017.0 1014.6
20 19.07 ЮЗ 6 19 км морось н/о +14.3 +11.7 84 +12 +12 1016.6 1014.2
21 19.07 ЮЗ 4 23 км слаб. ливневой дождь {морось} н/о +14.0 +12.0 88 +12 +12 1016.4 1013.9
22 19.07 Ю 6 35 км н/о +14.3 +11.5 83 +12 +12 1015.9 1013.5
23 19.07 ЮЗ 8 8000 м слаб. ливневой дождь н/о +14.3 +11.5 83 +12 +12 1015.6 1013.1

 

Местоположение метеостанции Malin Head (Ирландия): широта 55.37 долгота -7.34 высота над уровнем моря 20 м.

В архиве по умолчанию представлена погода в Malin Head за последнюю неделю. Архивные данные за месяц целиком и за предыдущие месяцы, начиная с января 2011 года, Вы можете получить, выбрав интересующий диапазон дат из раскрывающегося списка и нажав кнопку "Ввод!".


*Определитесь, кто Вы:
робот инопланетянин человек

Внимание! Время в таблицах - всемирное. Для получения местного времени необходимо прибавить поправку, которая в Malin Head равна 0 ч.

Смотрите также архив погоды в соседних городах и на ближайших метеорологических станциях:

Погода в Magilligan No 2 (Великобритания) (36 км)
Погода в Castlederg (Великобритания) (76 км)
Погода в Port Ellen (Великобритания) (77 км)
Погода в Ballypatrick Forest (Великобритания) (77 км)
Погода в Portglenone (Великобритания) (79 км)
Погода в Lough Fea (Великобритания) (80 км)
Погода в Machrihanish (Великобритания) (104 км)
Погода в Belfast (Великобритания) (107 км)
Погода в Finner (Ирландия) (114 км)
Погода в Thomastown (Великобритания) (117 км)

Пояснения к столбцам:

Ветер - указаны скорость ветра в м/с - средняя за 10 мин, порывы в срок и между сроками (в фигурных скобках) и направление, откуда дует ветер: С - северный, СВ - северо-восточный, В - восточный, ЮВ - юго-восточный, Ю - южный, ЮЗ - юго-западный, З - западный, СЗ - северо-западный.
Видимость - горизонтальная дальность видимости в метрах или километрах. При видимости от 1 до 10 км при отсутствии осадков обычно наблюдается дымка, при ухудшении видимости до 1 км и менее - туман. В сухую погоду видимость может ухудшаться дымом, пылью или мглою.
Явления - указаны атмосферные явления, наблюдавшиеся в срок или в последний час перед сроком; фигурными скобками обозначены явления, наблюдавшиеся между сроками (за 1-3 часа до срока); квадратными скобками обозначены град или гололедные отложения с указанием их диаметра в мм.
Облачность - указаны через наклонную черту общая и нижняя облачность в баллах и высота нижней границы облаков в метрах; квадратными скобками обозначены формы облаков: Ci - перистые, Cs - перисто-слоистые, Cc - перисто-кучевые, Ac - высококучевые, As - высокослоистые, Sc - слоисто-кучевые, Ns - слоисто-дождевые, Cu - кучевые, Cb - кучево-дождевые. Подробнее классификацию облаков см. в Атласе облаков (PDF).
T - Температура воздуха - температура, измеренная на высоте 2 м над землей.
Td - Температура точки росы - температура, при понижении до которой содержащийся в воздухе водяной пар достигнет насыщения.
f - Относительная влажность воздуха - влажноcть воздуха, измеренная на высоте 2 м над землей.
Te - Эффективная температура - температура, которую ощущает одетый по сезону человек в тени. Характеристика душности погоды. При расчете учитывается влияние влажности воздуха и скорости ветра на теплоощущения человека.
Tes - Эффективная температура на солнце - температура, которую ощущает человек, с поправкой на солнечный нагрев. Характеристика знойности погоды. Зависит от высоты солнца над горизонтом, облачности и скорости ветра. Ночью, в пасмурную погоду, а также при ветре 12 м/с и более поправка равна нулю.
P - Атмосферное давление - приведенное к уровню моря атмосферное давление.
Po - Атмосферное давление - измеренное на уровне метеостанции атмосферное давление.
Tmin - Минимальная температура - минимум температуры воздуха на высоте 2 м над землей.
Tmax - Максимальная температура - максимум температуры воздуха на высоте 2 м над землей.
R - Количество осадков - Количество выпавших осадков за период времени, мм. При наведении курсора мыши на число - период времени, за который выпало указанное количество осадков.
R24 - Количество осадков - Количество выпавших осадков за 24 часа, мм.
S - Снежный покров - Высота снежного покрова, см. При наведении курсора мыши на число - состояние снежного покрова и степень покрытия местности в баллах.